Location: Eexterzandvoort
(53.0303°N, 6.7884°E)
Time: 20:50:02
(UTC+00:00)

Cosmos 2360 Rocket - Pass Details

Date: 19 May 2025
Orbit: 834 x 842 km, 71.0° (Epoch: 15 June)

Event Time Altitude Azimuth Distance (km) Brightness Sun altitude
Rises 23:08:12 0° 327° (NNW) 3,395 6.5 -16.8°
Reaches altitude 10° 23:10:39 10° 327° (NNW) 2,457 5.6 -16.9°
Maximum altitude 23:16:18 83° 240° (WSW) 848 2.1 -16.9°
Enters shadow 23:19:38 26° 155° (SSE) 1,606 3.1 -17.0°
